Location: Colle Santa Colomba
(42.0333°N, 12.5667°E)
Time: 21:49:48
(UTC+00:00)

PSLV R/B - Pass Details

Date: 25 October 2021
Orbit: 501 x 576 km, 97.8° (Epoch: 05 December)

Event Time Altitude Azimuth Distance (km) Brightness Sun altitude
Rises 16:51:29 0° 169° (S) 2,752 7.4 -7.8°
Reaches altitude 10° 16:53:38 10° 170° (S) 1,851 6.5 -8.2°
Maximum altitude 16:57:39 79° 257° (WSW) 572 4.0 -8.9°
Drops below altitude 10° 17:01:36 10° 345° (NNW) 1,825 6.6 -9.7°
Sets 17:03:43 0° 347° (NNW) 2,710 7.4 -10.1°
